Weather History for Covington, KY

Change the Weather History Date:

Thursday, December 13, 2012

  Actual Average Record
Temperature  
Mean Temperature 34 °F 34 °F  
Max Temperature 47 °F 42 °F 67 °F (1927)
Min Temperature 21 °F 27 °F -3 °F (1962)
Degree Days  
Heating Degree Days 31 31  
Month to date heating degree days 241 372  
Since 1 July heating degree days 1347 1332  
Cooling Degree Days 0 0  
Month to date cooling degree days 0 0  
Year to date cooling degree days 1439 1121  
Moisture  
Dew Point 25 °F    
Average Humidity 67    
Maximum Humidity 92    
Minimum Humidity 42    
Precipitation  
Precipitation 0.00 in 0.11 in 1.64 in (1927)
Month to date precipitation 3.27 1.45  
Year to date precipitation 36.30 40.60  
Snow  
Snow 0.00 in 0.10 in 4.00 in (1945)
Month to date snowfall T 1.5  
Since 1 July snowfall T 2.3  
Snow Depth 0.00 in    
Sea Level Pressure  
Sea Level Pressure 30.36 in    
Wind  
Wind Speed 4 mph (SSE)    
Max Wind Speed 9 mph    
Max Gust Speed 15 mph    
Visibility 9 miles    
Events      
T = Trace of Precipitation, MM = Missing Value Source: NWS Daily Summary

Daily Weather History Graph

Daily Weather History Graph

Search for Another Location

Airport:

Trip Planner

Search our weather history database for the weather conditions in past years. The results will help you decide how hot, cold, wet, or windy it might be!

Date:

Astronomy

Dec. 13, 2012 Rise Set
Actual Time 7:49 AM EST 5:16 PM EST
Civil Twilight 7:19 AM EST 5:46 PM EST
Nautical Twilight 6:45 AM EST 6:20 PM EST
Astronomical Twilight 6:13 AM EST 6:52 PM EST
Moon 7:57 AM EST (12/13) 5:58 PM EST (12/13)
Length of Visible Light 10h 27m
Length of Day
9h 27m
New Moon, 0% of the Moon is Illuminated
Dec 13
New Moon
Dec 20
First Quarter
Dec 28
Full
Jan 4
Last Quarter
Jan 11
New

Hourly Weather History & Observations

Time (EST) Temp. Windchill Dew Point Humidity Pressure Visibility Wind Dir Wind Speed Gust Speed Precip Events Conditions
12:52 AM 30.0 °F - 24.1 °F 79% 30.38 in 10.0 mi Calm Calm - N/A   Clear
1:52 AM 27.0 °F 23.0 °F 21.9 °F 81% 30.37 in 10.0 mi East 3.5 mph - N/A   Clear
2:52 AM 27.0 °F 21.6 °F 23.0 °F 85% 30.38 in 10.0 mi ESE 4.6 mph - N/A   Clear
3:52 AM 28.0 °F - 23.0 °F 81% 30.40 in 10.0 mi Calm Calm - N/A   Clear
4:52 AM 28.0 °F - 21.9 °F 78% 30.41 in 10.0 mi Calm Calm - N/A   Clear
5:52 AM 27.0 °F - 21.9 °F 81% 30.41 in 10.0 mi Calm Calm - N/A   Clear
6:52 AM 25.0 °F - 21.9 °F 88% 30.43 in 7.0 mi Calm Calm - N/A   Clear
7:52 AM 21.0 °F - 19.9 °F 96% 30.43 in 6.0 mi Calm Calm - N/A   Clear
8:52 AM 27.0 °F - 25.0 °F 92% 30.42 in 7.0 mi Calm Calm - N/A   Clear
9:52 AM 34.0 °F 28.8 °F 27.0 °F 75% 30.42 in 7.0 mi ESE 5.8 mph - N/A   Clear
10:52 AM 39.0 °F 34.8 °F 28.0 °F 65% 30.42 in 10.0 mi SE 5.8 mph - N/A   Clear
11:52 AM 41.0 °F 37.1 °F 28.9 °F 62% 30.40 in 10.0 mi South 5.8 mph - N/A   Partly Cloudy
12:52 PM 44.1 °F 40.1 °F 27.0 °F 51% 30.36 in 10.0 mi South 6.9 mph - N/A   Partly Cloudy
1:52 PM 45.0 °F 42.6 °F 25.0 °F 46% 30.35 in 10.0 mi South 4.6 mph - N/A   Mostly Cloudy
2:52 PM 46.0 °F 42.5 °F 25.0 °F 44% 30.33 in 10.0 mi South 6.9 mph - N/A   Scattered Clouds
3:52 PM 46.9 °F - 27.0 °F 46% 30.32 in 10.0 mi South 5.8 mph - N/A   Mostly Cloudy
4:52 PM 44.1 °F 41.5 °F 27.0 °F 51% 30.31 in 10.0 mi South 4.6 mph - N/A   Mostly Cloudy
6:52 PM 37.4 °F 32.1 °F 26.6 °F 65% 30.27 in 10.0 mi SSE 6.9 mph - N/A   Partly Cloudy
7:52 PM 36.0 °F 33.3 °F 26.1 °F 67% 30.31 in 10.0 mi South 3.5 mph - N/A   Clear
8:52 PM 37.0 °F - 27.0 °F 67% 30.31 in 10.0 mi Calm Calm - N/A   Clear
9:52 PM 33.1 °F 27.7 °F 26.1 °F 75% 30.29 in 10.0 mi South 5.8 mph - N/A   Clear
10:52 PM 30.9 °F 24.3 °F 26.1 °F 82% 30.28 in 10.0 mi South 6.9 mph - N/A   Clear
11:52 PM 32.0 °F 25.6 °F 26.1 °F 79% 30.28 in 10.0 mi SSW 6.9 mph - N/A   Clear